Petersburg, WV

6:49 AM EST on February 13, 2016 (GMT -0500)
Petersburg

Weather History for KW99 - October, 2013

Change the Weather History Date:

Sunday, October 13, 2013

  Actual Average (KEKN) Record (KEKN)
Temperature  
Mean Temperature 60 °F 52 °F  
Max Temperature 63 °F 65 °F 83 °F (1969)
Min Temperature 56 °F 39 °F 18 °F (1988)
Degree Days  
Heating Degree Days 6 13  
Month to date heating degree days 144  
Since 1 July heating degree days 304  
Cooling Degree Days 0 0  
Month to date cooling degree days 0  
Year to date cooling degree days 471  
Growing Degree Days 10 (Base 50)    
Moisture  
Dew Point 58 °F    
Average Humidity 93    
Maximum Humidity 97    
Minimum Humidity 85    
Precipitation  
Precipitation 0.09 in 0.09 in 1.00 in (1900)
Month to date precipitation 1.21  
Year to date precipitation 37.65  
Snow  
Snow 0.00 in - - ()
Month to date snowfall  
Since 1 September snowfall  
Snow Depth -    
Sea Level Pressure  
Sea Level Pressure 30.29 in    
Wind  
Wind Speed 1 mph (NNE)    
Max Wind Speed 6 mph    
Max Gust Speed -    
Visibility 6 miles    
Events Rain    
T = Trace of Precipitation, MM = Missing Value Source: NWS Daily Summary

Daily Weather History Graph

Daily Weather History Graph

Search for Another Location

Airport or City:

Trip Planner

Search our weather history database for the weather conditions in past years. The results will help you decide how hot, cold, wet, or windy it might be!

Date:

Astronomy

Oct. 13, 2013 Rise Set
Actual Time 7:24 AM EDT 6:40 PM EDT
Civil Twilight 6:57 AM EDT 7:07 PM EDT
Nautical Twilight 6:26 AM EDT 7:38 PM EDT
Astronomical Twilight 5:55 AM EDT 8:09 PM EDT
Moon 3:28 PM EDT 1:34 AM EDT
Length of Visible Light 12h 09m
Length of Day
11h 16m
Waxing Gibbous, 69% of the Moon is Illuminated
Oct 13
Waxing Gibbous
Oct 18
Full
Oct 26
Last Quarter
Nov 3
New
Nov 10
First Quarter

Hourly Weather History & Observations

Time (EDT) Temp. Dew Point Humidity Pressure Visibility Wind Dir Wind Speed Gust Speed Precip Events Conditions
12:15 AM 59.2 °F 57.9 °F 96% 30.22 in 3.0 mi North 3.5 mph - N/A   Drizzle
12:35 AM 58.3 °F 57.2 °F 96% 30.22 in 5.0 mi Calm Calm - 0.01 in   Drizzle
12:55 AM 58.1 °F 56.7 °F 95% 30.22 in 10.0 mi North 5.8 mph - 0.01 in   Overcast
1:15 AM 58.3 °F 56.7 °F 94% 30.22 in 10.0 mi North 3.5 mph - N/A   Overcast
1:35 AM 58.3 °F 56.5 °F 94% 30.22 in 10.0 mi Calm Calm - N/A   Overcast
1:55 AM 58.3 °F 56.7 °F 94% 30.22 in 10.0 mi Calm Calm - N/A   Overcast
2:15 AM 58.8 °F 57.0 °F 94% 30.22 in 10.0 mi Calm Calm - N/A   Overcast
2:35 AM 59.0 °F 57.0 °F 93% 30.22 in 10.0 mi Calm Calm - N/A   Overcast
2:55 AM 58.8 °F 57.0 °F 94% 30.22 in 3.0 mi Calm Calm - N/A Rain Rain
3:15 AM 58.5 °F 57.0 °F 95% 30.22 in 2.5 mi Calm Calm - 0.01 in   Heavy Drizzle
3:35 AM 58.3 °F 57.2 °F 96% 30.23 in 3.0 mi Calm Calm - 0.01 in   Drizzle
3:55 AM 58.1 °F 56.8 °F 96% 30.23 in 3.0 mi Calm Calm - 0.02 in   Drizzle
4:15 AM 57.7 °F 56.3 °F 95% 30.23 in 3.0 mi Calm Calm - N/A   Drizzle
4:35 AM 57.0 °F 55.9 °F 96% 30.23 in 2.5 mi Calm Calm - 0.01 in   Light Drizzle
4:55 AM 56.5 °F 55.6 °F 97% 30.23 in 2.5 mi Calm Calm - 0.01 in   Light Drizzle
5:15 AM 56.5 °F 55.4 °F 96% 30.23 in 2.5 mi Calm Calm - N/A   Overcast
5:35 AM 56.5 °F 55.4 °F 96% 30.24 in 4.0 mi Calm Calm - N/A   Overcast
5:55 AM 56.7 °F 55.4 °F 96% 30.24 in 7.0 mi Calm Calm - N/A   Overcast
6:15 AM 57.2 °F 55.9 °F 96% 30.25 in 7.0 mi Calm Calm - N/A   Overcast
6:35 AM 57.6 °F 56.3 °F 96% 30.25 in 5.0 mi Calm Calm - N/A   Overcast
6:55 AM 57.9 °F 56.7 °F 96% 30.26 in 3.0 mi Calm Calm - N/A   Overcast
7:15 AM 58.5 °F 57.0 °F 95% 30.27 in 3.0 mi Calm Calm - N/A   Overcast
7:35 AM 58.5 °F 57.4 °F 96% 30.28 in 2.5 mi Calm Calm - 0.01 in   Light Drizzle
7:55 AM 58.5 °F 57.2 °F 96% 30.28 in 2.5 mi Calm Calm - 0.01 in   Light Drizzle
8:15 AM 58.6 °F 57.4 °F 96% 30.28 in 2.0 mi Calm Calm - N/A   Overcast
8:35 AM 59.0 °F 57.7 °F 96% 30.29 in 3.0 mi Calm Calm - N/A   Overcast
8:55 AM 59.2 °F 57.6 °F 94% 30.30 in 4.0 mi Calm Calm - N/A   Overcast
9:15 AM 59.2 °F 57.7 °F 95% 30.31 in 2.5 mi Calm Calm - N/A Rain Light Rain
9:35 AM 59.2 °F 57.7 °F 95% 30.31 in 1.8 mi Calm Calm - 0.01 in   Drizzle
9:55 AM 59.2 °F 57.9 °F 96% 30.32 in 2.0 mi Calm Calm - 0.01 in   Drizzle
10:15 AM 59.5 °F 58.1 °F 95% 30.32 in 2.5 mi Calm Calm - 0.01 in   Light Drizzle
10:35 AM 59.9 °F 58.3 °F 94% 30.32 in 2.0 mi Calm Calm - 0.01 in Rain Rain
10:55 AM 60.4 °F 58.8 °F 94% 30.32 in 2.0 mi Calm Calm - 0.01 in   Overcast
11:15 AM 60.6 °F 58.6 °F 93% 30.32 in 7.0 mi NNE 3.5 mph - N/A   Overcast
11:55 AM 60.1 °F 58.3 °F 94% 30.33 in 2.0 mi Calm Calm - N/A   Light Drizzle
12:15 PM 60.4 °F 58.6 °F 94% 30.33 in 2.5 mi Calm Calm - N/A Rain Rain
12:35 PM 60.8 °F 59.0 °F 94% 30.32 in 5.0 mi Calm Calm - N/A   Overcast
12:55 PM 60.8 °F 59.0 °F 94% 30.32 in 4.0 mi Calm Calm - N/A   Overcast
1:15 PM 61.0 °F 58.8 °F 93% 30.31 in 7.0 mi Calm Calm - N/A   Overcast
1:35 PM 62.1 °F 59.0 °F 90% 30.31 in 10.0 mi Calm Calm - N/A   Overcast
1:55 PM 63.0 °F 59.2 °F 87% 30.30 in 10.0 mi Calm Calm - N/A   Overcast
2:15 PM 62.6 °F 58.5 °F 86% 30.30 in 10.0 mi Calm Calm - N/A   Overcast
2:35 PM 63.1 °F 58.5 °F 85% 30.29 in 10.0 mi Calm Calm - 0.01 in   Overcast
2:55 PM 62.8 °F 58.3 °F 85% 30.29 in 10.0 mi Calm Calm - 0.01 in   Overcast
3:15 PM 63.0 °F 59.0 °F 87% 30.29 in 10.0 mi Calm Calm - N/A   Overcast
3:35 PM 63.7 °F 59.0 °F 85% 30.29 in 10.0 mi Calm Calm - N/A   Overcast
3:55 PM 63.5 °F 58.8 °F 85% 30.29 in 10.0 mi Calm Calm - N/A   Overcast
4:15 PM 63.0 °F 58.3 °F 85% 30.29 in 10.0 mi Calm Calm - N/A   Overcast
4:35 PM 62.6 °F 58.6 °F 87% 30.29 in 10.0 mi Calm Calm - N/A   Overcast
4:55 PM 62.6 °F 59.0 °F 88% 30.29 in 10.0 mi Calm Calm - N/A   Overcast
5:15 PM 62.4 °F 59.2 °F 89% 30.30 in 7.0 mi Calm Calm - N/A Rain Rain
5:35 PM 61.7 °F 59.4 °F 92% 30.30 in 4.0 mi Calm Calm - N/A   Light Drizzle
5:55 PM 61.2 °F 59.0 °F 93% 30.31 in 10.0 mi Calm Calm - N/A   Overcast
6:15 PM 61.0 °F 59.2 °F 94% 30.31 in 3.0 mi Calm Calm - N/A Rain Rain
6:35 PM 60.8 °F 59.0 °F 94% 30.31 in 4.0 mi Calm Calm - N/A   Overcast
6:55 PM 60.8 °F 59.2 °F 94% 30.31 in 10.0 mi Calm Calm - N/A   Overcast
7:15 PM 60.8 °F 59.0 °F 94% 30.32 in 10.0 mi Calm Calm - N/A   Overcast
7:35 PM 61.0 °F 59.2 °F 94% 30.32 in 10.0 mi Calm Calm - N/A   Overcast
7:55 PM 60.8 °F 59.2 °F 94% 30.32 in 10.0 mi Calm Calm - N/A Rain Rain
8:15 PM 60.8 °F 59.2 °F 94% 30.32 in 5.0 mi Calm Calm - N/A   Drizzle
8:35 PM 60.3 °F 58.6 °F 94% 30.33 in 10.0 mi Calm Calm - N/A   Light Drizzle
8:55 PM 60.1 °F 58.5 °F 94% 30.33 in 7.0 mi Calm Calm - 0.01 in Rain Rain
9:15 PM 60.1 °F 58.5 °F 94% 30.33 in 10.0 mi Calm Calm - N/A   Overcast
9:35 PM 59.9 °F 58.3 °F 94% 30.33 in 10.0 mi Calm Calm - N/A   Overcast
9:55 PM 59.9 °F 58.3 °F 94% 30.33 in 10.0 mi Calm Calm - N/A   Overcast
10:15 PM 59.7 °F 57.9 °F 94% 30.33 in 10.0 mi Calm Calm - N/A   Overcast
10:35 PM 58.8 °F 57.2 °F 94% 30.33 in 10.0 mi Calm Calm - N/A   Overcast
10:55 PM 58.5 °F 56.7 °F 94% 30.33 in 10.0 mi Calm Calm - N/A   Overcast
11:15 PM 58.1 °F 56.3 °F 94% 30.33 in 10.0 mi Calm Calm - N/A   Overcast
11:35 PM 57.9 °F 56.1 °F 94% 30.33 in 7.0 mi Calm Calm - N/A   Overcast
11:55 PM 59.2 °F 57.4 °F 94% 30.33 in 10.0 mi Calm Calm - N/A   Overcast